Miscellaneous Local Product
Issued by NWS North Platte, NE

Home | Current Version | Previous Version | Text Only | Print | Product List | Glossary On
Versions: 1 2 3 4 5 6 7 8 9 10 11 12 13 14 15 16 17 18 19 20 21 22 23 24 25 26 27 28 29 30 31 32 33 34 35 36 37 38 39 40 41 42 43 44 45 46 47 48 49 50
000
AXUS43 KLBF 291510
MISLBF


WESTERN AND NORTH CENTRAL NEBRASKA HOURLY WEATHER ROUNDUP
NATIONAL WEATHER SERVICE NORTH PLATTE NE
1000 AM CDT MON MAY 29 2017

NOTE: "FAIR" INDICATES FEW OR NO CLOUDS BELOW 12,000 FEET WITH NO
SIGNIFICANT WEATHER AND/OR OBSTRUCTIONS TO VISIBILITY.

NOTE: STATIONS NOT REPORTING VARIABLES SUCH AS SKY/WEATHER OR
PRESSURE ARE PROVIDED BY RAWS AND APRS NETWORKS AND ARE NOT UNDER
NATIONAL WEATHER SERVICE QUALITY CONTROL.

...OBSERVATIONS IN AND NEAR THE EASTERN PANHANDLE OF NEBRASKA...

CITY           SKY/WX    TMP DP  RH WIND       PRES   REMARKS
PINE RIDGE     SUNNY     57  41  55 NW7       30.17S
GORDON         FAIR      57  37  46 N8        30.17R
CHADRON        SUNNY     58  43  57 W8        30.18S
ALLIANCE       SUNNY     59  44  57 NW14      30.18R
SIDNEY         SUNNY     61  47  59 NW13      30.22R
CRESCENT LAKE    N/A     61  44  53 N10G18      N/A
$$

...OBSERVATIONS IN NORTHERN NEBRASKA AND FAR SOUTHERN SOUTH DAKOTA...

CITY           SKY/WX    TMP DP  RH WIND       PRES   REMARKS
WINNER         FAIR      61  44  53 N18G24    30.09R
VALENTINE      SUNNY     60  39  45 NW15      30.13R
THEDFORD       SUNNY     62  39  42 N10       30.15R
AINSWORTH      SUNNY     59  41  52 NW15      30.12R
O`NEILL        SUNNY     61  40  45 NW16G23   30.09R
ORD            SUNNY     64  44  48 N10       30.08R
BROKEN BOW     SUNNY     64  40  41 N20       30.11R
VALENTINE NWR    N/A     57  40  53 NW10        N/A
HALSEY           N/A     61  40  45 NW6         N/A
BUTTE            N/A     59  42  53 NW20G26     N/A
CHAMBERS         N/A     64  42  44 NW3G12      N/A
EWING            N/A     63  44  50 NW12G18     N/A
$$

...OBSERVATIONS IN SOUTHWEST NEBRASKA AND FAR NORTHEAST COLORADO...

CITY           SKY/WX    TMP DP  RH WIND       PRES   REMARKS
WRAY           FAIR      64  45  48 MISG      30.20S
IMPERIAL       SUNNY     64  45  49 N13       30.17S
OGALLALA       SUNNY     63  48  58 NW12      30.17R
NORTH PLATTE   SUNNY     64  48  56 NW9       30.14S
MCCOOK         SUNNY     66  47  50 NW9       30.14R
LEXINGTON      SUNNY     65  49  56 NW8       30.12R
STAPLETON        N/A     62  46  55 CALM        N/A
GOTHENBURG       N/A     58  43  58 NW9         N/A
CALLAWAY         N/A     58  47  68 NW12        N/A
$$

...OBSERVATIONS IN CENTRAL LINCOLN COUNTY AREA...

CITY           SKY/WX    TMP DP  RH WIND       PRES   REMARKS
N.P. AIRPORT   SUNNY     64  48  56 NW9       30.14S
N.P. DOWNTOWN    N/A     63  46  54 NW3         N/A
N.P. SOUTHEAST   N/A     62  46  55 N3          N/A
N.P. HILLCREST   N/A     62  46  55 NW7         N/A
$$

...SOME OBSERVATIONS FROM AROUND THE REGION...

CITY           SKY/WX    TMP DP  RH WIND       PRES   REMARKS
DENVER         MOSUNNY   58  43  57 W3        30.28R
LIMON          MOSUNNY   59  42  53 VRB7      30.28S
ASPEN          SUNNY     51  27  39 E3        30.32S
LARAMIE        SUNNY     50  37  61 CALM      30.31S
CASPER         SUNNY     56  44  64 W5        30.28S
CHEYENNE       SUNNY     54  34  46 N6        30.29R
SCOTTSBLUFF    SUNNY     60  45  57 W10       30.21R
GRAND ISLAND   SUNNY     67  50  54 N15       30.08R
OMAHA          MOSUNNY   69  48  47 NW8       29.99R
SIOUX FALLS    MOSUNNY   60  47  61 NW22      29.97R
PIERRE         SUNNY     59  41  51 NW20      30.06S
RAPID CITY     SUNNY     59  36  42 N10       30.17R
BISMARCK       PTSUNNY   59  44  57 NW16G26   30.04S
KANSAS CITY    MOSUNNY   71  52  50 NW10      29.98R
HILL CITY      SUNNY     68  50  52 N13       30.12S
WICHITA        MOSUNNY   74  51  44 N12       30.05R
DODGE CITY     SUNNY     70  48  45 N9        30.14S
OKLAHOMA CITY  PTSUNNY   77  47  34 SW9       30.08R
DALLAS         CLOUDY    78  64  61 NE3       30.07R
AMARILLO       SUNNY     71  39  31 SW7       30.21S
$$




USA.gov is the U.S. government's official web portal to all federal, state and local government web resources and services.